"Pseudo-MPEC" for P22oZtr

Created 2026 Aug 9 10:35:17 UT using Find_Orb

Click here for an explanation of pseudo-MPECs

 
 Astrometry: 
     P22oZtr*0C2026 08 08.52566223 58 57.867-05 08 36.78   ~88EK 21.73wXNEOCPF52
     P22oZtr 0C2026 08 08.54992523 59 05.657-05 07 38.74   ~88EK 21.08wXNEOCPF52
     P22oZtr 0C2026 08 08.56205323 59 09.564-05 07 09.59   ~88EK 21.07wXNEOCPF52
     P22oZtr 0C2026 08 08.61599223 59 27.018-05 04 59.37   ~88H5 20.23GVNEOCPF52
     P22oZtr 0C2026 08 08.61679923 59 27.281-05 04 57.40   ~88H5 20.29GVNEOCPF52
     P22oZtr 1C2026 08 09.04489000 02 03.628-04 47 54.20   ~897Z 20.2 GXNEOCP033
     P22oZtr 1C2026 08 09.04600000 02 04.027-04 47 51.60   ~897Z 20.3 GXNEOCP033
     P22oZtr 1C2026 08 09.04712000 02 04.448-04 47 48.90   ~897Z 20.4 GXNEOCP033
     P22oZtr 1C2026 08 09.04824000 02 04.826-04 47 45.40   ~897Z 20.0 GXNEOCP033

Station data:
(033) Karl Schwarzschild Observatory, Tautenburg  (N50.980139 E11.711240)
   Germany.  Observer B. Stecklum. 1.34-m f/3 Schmidt + CCD.
(F52) Pan-STARRS 2, Haleakala  (N20.707382 W156.255910)  US/Hawaii.
   Observers J. Herman, T. Lowe, P. Minguez, A. Schultz, I. Smith. Measurers
   K. Chambers, T. de Boer, J. Fairlamb, H. Gao, M. Huber, C.-C. Lin, E.
   Magnier, Y. Ramanjooloo, R. Wainscoat, R. Weryk. 1.8-m Ritchey-Chrétien +
   CCD.

Orbital elements:  P22oZtr
   Perihelion 2026 Oct 25.390727 +/- 0.367 TT =  9:22:38.7 (JD 2461338.890727)
Epoch 2026 Aug  9.0 TT = JDT 2461261.5   Earth MOID: 0.0003   Ve: 0.0795
M 300.979941819 +/- 0.8             Ma: 0.0083                   AutoNEOCP
n   0.762624421 +/- 0.00777         Peri.   81.609588 +/- 3.0
a   1.186484976 +/- 0.00806         Node   335.772092 +/- 0.57
e   0.33204284 +/- 0.0121           Incl.    1.779794 +/- 0.08
P   1.292/472.045d         H 23.64  G  0.15   U  9.5
q 0.792521131 +/- 0.0193    Q 1.580448821 +/- 0.00665     (J2000 ecliptic)
From 9 observations 2026 Aug. 8-9 (12.5 hr); mean residual 0".19
Residuals in arcseconds: 
260808 F52  .08+  .02-    260808 F52  .02+  .00     260809 033  .16-  .17-    
260808 F52  .09-  .01-    260808 F52  .02+  .01+    260809 033  .34+  .27-    
260808 F52  .03-  .03+    260809 033  .38-  .01+    260809 033  .20+  .42+    

Ephemerides (geocentric):
Date (UTC) HH   RA             Dec           delta  r     elong  mag " sig PA
---- --------  ------------   ------------  ------ ------ -----  --- --------
2026 08 09 11  00 04 36.541   -04 29 12.99  .11316 1.0994 137.1 20.7 3.52  78
2026 08 09 12  00 04 52.334   -04 27 23.97  .11293 1.0991 137.0 20.7 4.07  77
2026 08 09 13  00 05 08.184   -04 25 34.52  .11269 1.0989 137.0 20.7 4.66  76
2026 08 09 14  00 05 24.090   -04 23 44.63  .11245 1.0987 137.0 20.7 5.29  75
2026 08 09 15  00 05 40.053   -04 21 54.31  .11222 1.0984 136.9 20.7 5.96  74
2026 08 09 16  00 05 56.072   -04 20 03.55  .11198 1.0982 136.9 20.6 6.68  73
2026 08 09 17  00 06 12.149   -04 18 12.34  .11175 1.0980 136.9 20.6 7.43  72
2026 08 09 18  00 06 28.283   -04 16 20.70  .11151 1.0978 136.8 20.6 8.22  72
2026 08 09 19  00 06 44.476   -04 14 28.60  .11128 1.0975 136.8 20.6 9.05  71
2026 08 09 20  00 07 00.726   -04 12 36.06  .11104 1.0973 136.8 20.6 9.92  71
2026 08 09 21  00 07 17.035   -04 10 43.06  .11081 1.0971 136.7 20.6 10.8  71
2026 08 09 22  00 07 33.403   -04 08 49.61  .11057 1.0968 136.7 20.6 11.8  70
2026 08 09 23  00 07 49.830   -04 06 55.71  .11034 1.0966 136.7 20.6 12.8  70
2026 08 10 00  00 08 06.317   -04 05 01.34  .11011 1.0964 136.6 20.6 13.8  70
2026 08 10 01  00 08 22.863   -04 03 06.52  .10987 1.0961 136.6 20.6 14.9  70
2026 08 10 02  00 08 39.470   -04 01 11.23  .10964 1.0959 136.5 20.6 16.1  69
2026 08 10 03  00 08 56.137   -03 59 15.47  .10941 1.0957 136.5 20.6 17.2  69
2026 08 10 04  00 09 12.865   -03 57 19.25  .10918 1.0955 136.5 20.6 18.5  69
2026 08 10 05  00 09 29.654   -03 55 22.55  .10894 1.0952 136.4 20.6 19.7  69
2026 08 10 06  00 09 46.505   -03 53 25.38  .10871 1.0950 136.4 20.6 21.0  69
2026 08 10 07  00 10 03.418   -03 51 27.73  .10848 1.0948 136.4 20.6 22.4  69
2026 08 10 08  00 10 20.393   -03 49 29.61  .10825 1.0945 136.3 20.6 23.8  68
2026 08 10 09  00 10 37.430   -03 47 31.00  .10802 1.0943 136.3 20.6 25.3  68
2026 08 10 10  00 10 54.531   -03 45 31.91  .10778 1.0941 136.2 20.6 26.8  68
2026 08 10 11  00 11 11.694   -03 43 32.33  .10755 1.0938 136.2 20.6 28.3  68
2026 08 10 12  00 11 28.922   -03 41 32.26  .10732 1.0936 136.2 20.6 29.9  68
2026 08 10 13  00 11 46.213   -03 39 31.70  .10709 1.0934 136.1 20.6 31.6  68
2026 08 10 14  00 12 03.568   -03 37 30.65  .10686 1.0931 136.1 20.6 33.3  68
2026 08 10 15  00 12 20.989   -03 35 29.10  .10663 1.0929 136.1 20.6 35.0  68
2026 08 10 16  00 12 38.474   -03 33 27.04  .10640 1.0927 136.0 20.6 36.9  68
2026 08 10 17  00 12 56.025   -03 31 24.49  .10617 1.0925 136.0 20.6 38.7  67
2026 08 10 18  00 13 13.641   -03 29 21.43  .10594 1.0922 135.9 20.5 40.6  67
2026 08 10 19  00 13 31.324   -03 27 17.86  .10571 1.0920 135.9 20.5 42.6  67
2026 08 10 20  00 13 49.073   -03 25 13.78  .10548 1.0918 135.8 20.5 44.6  67
2026 08 10 21  00 14 06.889   -03 23 09.19  .10526 1.0915 135.8 20.5 46.7  67
2026 08 10 22  00 14 24.773   -03 21 04.08  .10503 1.0913 135.8 20.5 48.8  67
2026 08 10 23  00 14 42.724   -03 18 58.46  .10480 1.0911 135.7 20.5 51.0  67
2026 08 11 00  00 15 00.743   -03 16 52.31  .10457 1.0908 135.7 20.5 53.2  67
2026 08 11 01  00 15 18.830   -03 14 45.63  .10434 1.0906 135.6 20.5 55.5  67
2026 08 11 02  00 15 36.987   -03 12 38.43  .10412 1.0904 135.6 20.5 57.9  67
2026 08 11 03  00 15 55.212   -03 10 30.70  .10389 1.0902 135.6 20.5 60.3  67
2026 08 11 04  00 16 13.507   -03 08 22.44  .10366 1.0899 135.5 20.5 62.8  67
2026 08 11 05  00 16 31.872   -03 06 13.64  .10343 1.0897 135.5 20.5 65.3  67
2026 08 11 06  00 16 50.308   -03 04 04.30  .10321 1.0895 135.4 20.5 67.9  67
2026 08 11 07  00 17 08.814   -03 01 54.42  .10298 1.0892 135.4 20.5 70.6  67
2026 08 11 08  00 17 27.391   -02 59 43.99  .10276 1.0890 135.3 20.5 73.3  67
2026 08 11 09  00 17 46.040   -02 57 33.02  .10253 1.0888 135.3 20.5 76.1  67
2026 08 11 10  00 18 04.761   -02 55 21.49  .10231 1.0885 135.2 20.5 78.9  67